Location: Boiro
(42.6475°N, 8.8834°W)
Time: 00:21:18
(UTC+01:00)

Explorer 7 - Pass Details

Date: 03 December 2021
Orbit: 483 x 674 km, 50.3° (Epoch: 26 January)

Event Time Altitude Azimuth Distance (km) Brightness Sun altitude
Exits shadow 06:11:17 14° 170° (S) 1,698 9.4 -28.1°
Maximum altitude 06:13:31 19° 134° (SE) 1,397 9.4 -27.7°
Drops below altitude 10° 06:16:31 10° 88° (E) 1,850 10.5 -27.2°
Sets 06:19:12 0° 71° (ENE) 2,709 11.3 -26.7°
